#Comment Line 1
#Comment Line 2
#reqtime=1715817011.255,2024-05-15 23:50:11.255,UTC
#URL=http://130.118.152.200:8080/valve3/valve3.jsp?&a=rawData&o=csv&tz=UTC&chCnt.0=1&src.0=hw50_scan&st.0=-2419200000&et.0=N&ch.0=3&dataTypes.0=0.0&ds.0=Decimation&dsInt.0=5&despike.0=F&despike_period.0=&dmo_fl.0=0&filter_arg1.0=&filter_arg2.0=&filter_arg3.0=&dmo_arithmetic.0=None&dmo_arithmetic_value.0=&dmo_db.0=0&debias_period.0=&CH0.0=T&CH1.0=T&CH2.0=T&CH3.0=T&CH4.0=T&CH5.0=T&CH6.0=T&CH7.0=F&CH8.0=T
#source=hw50_scan
#st= 766669811.259, et= 769089011.259, chCnt=1
Epoch,Date,hw50_430_CH0,hw50_430_CH1,hw50_430_CH2,hw50_430_CH3,hw50_430_CH4,hw50_430_CH5,hw50_430_CH6,hw50_430_CH8
1713397860.000,2024-04-17 23:51:00,   13.3708,    1.2053,    2.3556,    1.9460,    0.2111,    0.5184,    0.0488, 5029.4049
1713398160.000,2024-04-17 23:56:00,   13.3716,    1.2055,    2.3556,    1.9461,    0.2122,    0.5184,    0.0491, 5029.2795
1713398460.000,2024-04-18 00:01:00,   13.3765,    1.2055,    2.3558,    1.9461,    0.2057,    0.5183,    0.0490, 5029.1424
1713398760.000,2024-04-18 00:06:00,   13.3735,    1.2057,    2.3558,    1.9460,    0.2023,    0.5183,    0.0488, 5029.0014
1713399060.000,2024-04-18 00:11:00,   13.3727,    1.2056,    2.3556,    1.9461,    0.2069,    0.5184,    0.0489, 5028.8642
1713399360.000,2024-04-18 00:16:00,   13.3712,    1.2057,    2.3557,    1.9462,    0.2134,    0.5183,    0.0489, 5028.7271
1713399660.000,2024-04-18 00:21:00,   13.3723,    1.2051,    2.3555,    1.9461,    0.2137,    0.5182,    0.0486, 5028.5978
1713399960.000,2024-04-18 00:26:00,   13.3704,    1.2029,    2.3556,    1.9461,    0.2099,    0.5180,    0.0489, 5028.4606
1713400260.000,2024-04-18 00:31:00,   13.3742,    1.2053,    2.3556,    1.9462,    0.2084,    0.5182,    0.0488, 5028.3274
1713400560.000,2024-04-18 00:36:00,   13.3727,    1.2053,    2.3556,    1.9461,    0.2088,    0.5182,    0.0488, 5028.1903
1713400860.000,2024-04-18 00:41:00,   13.3758,    1.2051,    2.3556,    1.9462,    0.2111,    0.5180,    0.0487, 5028.0571
1713401160.000,2024-04-18 00:46:00,   13.4082,    1.2054,    2.3559,    1.9462,    0.2076,    0.5181,    0.0485, 5027.9160
1713401460.000,2024-04-18 00:51:00,   13.4059,    1.2053,    2.3557,    1.9462,    0.2122,    0.5182,    0.0486, 5027.7828
1713401760.000,2024-04-18 00:56:00,   13.4051,    1.2057,    2.3558,    1.9461,    0.2107,    0.5185,    0.0486, 5027.6496
1713402060.000,2024-04-18 01:01:00,   13.4017,    1.2055,    2.3558,    1.9462,    0.2115,    0.5180,    0.0487, 5027.5281
1713402360.000,2024-04-18 01:06:00,   13.4009,    1.2056,    2.3557,    1.9462,    0.2134,    0.5178,    0.0484, 5027.4145
1713402660.000,2024-04-18 01:11:00,   13.3430,    1.2052,    2.3559,    1.9462,    0.2080,    0.5179,    0.0484, 5027.3009
1713402960.000,2024-04-18 01:16:00,   13.4032,    1.2057,    2.3558,    1.9462,    0.2126,    0.5179,    0.0484, 5027.1833
1713403260.000,2024-04-18 01:21:00,   13.1232,    1.2052,    2.3557,    1.9463,    0.2054,    0.5177,    0.0483, 5027.0658
1713403560.000,2024-04-18 01:26:00,   13.1186,    1.2056,    2.3559,    1.9462,    0.2145,    0.5174,    0.0484, 5026.9482
1713403860.000,2024-04-18 01:31:00,   13.4036,    1.2054,    2.3561,    1.9463,    0.2084,    0.5171,    0.0483, 5026.8307
1713404160.000,2024-04-18 01:36:00,   13.4051,    1.2056,    2.3562,    1.9462,    0.2088,    0.5171,    0.0483, 5026.7092
1713404460.000,2024-04-18 01:41:00,   13.0649,    1.2054,    2.3561,    1.9464,    0.2111,    0.5166,    0.0482, 5026.5878
1713404760.000,2024-04-18 01:46:00,   12.7947,    1.2054,    2.3560,    1.9463,    0.2126,    0.5162,    0.0482, 5026.4663
1713405060.000,2024-04-18 01:51:00,   12.7471,    1.2054,    2.3561,    1.9463,    0.2179,    0.5160,    0.0481, 5026.3409
1713405360.000,2024-04-18 01:56:00,   12.7182,    1.2053,    2.3563,    1.9463,    0.2130,    0.5156,    0.0480, 5026.2116
1713405660.000,2024-04-18 02:01:00,   12.6987,    1.2058,    2.3564,    1.9464,    0.2137,    0.5160,    0.0480, 5026.0627
1713405960.000,2024-04-18 02:06:00,   12.6839,    1.2056,    2.3572,    1.9464,    0.2134,    0.5158,    0.0479, 5025.9021
1713406260.000,2024-04-18 02:11:00,   12.6724,    1.2052,    2.3574,    1.9463,    0.2054,    0.5155,    0.0478, 5025.7258
1713406560.000,2024-04-18 02:16:00,   12.6637,    1.2056,    2.3574,    1.9465,    0.2080,    0.5156,    0.0479, 5025.5377
1713406860.000,2024-04-18 02:21:00,   12.6564,    1.2054,    2.3568,    1.9465,    0.2084,    0.5151,    0.0478, 5025.3300
1713407160.000,2024-04-18 02:26:00,   12.6507,    1.2054,    2.3569,    1.9465,    0.2099,    0.5150,    0.0476, 5025.1145
1713407460.000,2024-04-18 02:31:00,   12.6458,    1.2053,    2.3570,    1.9466,    0.2221,    0.5148,    0.0478, 5024.8873
1713407760.000,2024-04-18 02:36:00,   12.6408,    1.2064,    2.3573,    1.9466,    0.2156,    0.5146,    0.0476, 5024.6522
1713408060.000,2024-04-18 02:41:00,   12.6366,    1.2053,    2.3574,    1.9466,    0.2172,    0.5147,    0.0476, 5024.4171
1713408360.000,2024-04-18 02:46:00,   12.6328,    1.2056,    2.3577,    1.9466,    0.2115,    0.5142,    0.0477, 5024.1742
1713408660.000,2024-04-18 02:51:00,   12.6279,    1.2053,    2.3577,    1.9463,    0.2061,    0.5139,    0.0472, 5023.9234
1713408960.000,2024-04-18 02:56:00,   12.6252,    1.2055,    2.3583,    1.9466,    0.2168,    0.5143,    0.0474, 5023.6726
1713409260.000,2024-04-18 03:01:00,   12.6218,    1.2056,    2.3588,    1.9466,    0.2141,    0.5142,    0.0473, 5023.4258
1713409560.000,2024-04-18 03:06:00,   12.6191,    1.2056,    2.3590,    1.9467,    0.2145,    0.5141,    0.0472, 5023.1750
1713409860.000,2024-04-18 03:11:00,   12.6176,    1.2054,    2.3591,    1.9467,    0.2172,    0.5140,    0.0472, 5022.9321
1713410160.000,2024-04-18 03:16:00,   12.6145,    1.2055,    2.3588,    1.9468,    0.2153,    0.5137,    0.0472, 5022.6892
1713410460.000,2024-04-18 03:21:00,   12.6126,    1.2057,    2.3593,    1.9468,    0.2156,    0.5135,    0.0471, 5022.4502
1713410760.000,2024-04-18 03:26:00,   12.6100,    1.2061,    2.3596,    1.9468,    0.2137,    0.5131,    0.0469, 5022.2151
1713411060.000,2024-04-18 03:31:00,   12.6073,    1.2059,    2.3598,    1.9468,    0.2168,    0.5131,    0.0469, 5021.9878
1713411360.000,2024-04-18 03:36:00,   12.6058,    1.2059,    2.3604,    1.9468,    0.2134,    0.5130,    0.0468, 5021.7645
1713411660.000,2024-04-18 03:41:00,   12.6027,    1.2056,    2.3606,    1.9469,    0.2130,    0.5131,    0.0467, 5021.5451
1713411960.000,2024-04-18 03:46:00,   12.6012,    1.2056,    2.3607,    1.9469,    0.2191,    0.5127,    0.0467, 5021.3453
1713412260.000,2024-04-18 03:51:00,   12.5993,    1.2057,    2.3603,    1.9469,    0.2149,    0.5129,    0.0464, 5021.1337
1713412560.000,2024-04-18 03:56:00,   12.5970,    1.2056,    2.3601,    1.9468,    0.2156,    0.5149,    0.0465, 5020.9456
1713412860.000,2024-04-18 04:01:00,   12.5962,    1.2055,    2.3605,    1.9469,    0.2160,    0.5120,    0.0464, 5020.7614
1713413160.000,2024-04-18 04:06:00,   12.5940,    1.2059,    2.3606,    1.9470,    0.2156,    0.5121,    0.0463, 5020.5812
1713413460.000,2024-04-18 04:11:00,   12.5924,    1.2061,    2.3610,    1.9469,    0.2134,    0.5124,    0.0462, 5020.4166
1713413760.000,2024-04-18 04:16:00,   12.5905,    1.2058,    2.3609,    1.9469,    0.2160,    0.5123,    0.0462, 5020.2560
1713414060.000,2024-04-18 04:21:00,   12.5894,    1.2059,    2.3609,    1.9470,    0.2179,    0.5123,    0.0461, 5020.0993
1713414360.000,2024-04-18 04:26:00,   12.5882,    1.2058,    2.3612,    1.9470,    0.2195,    0.5121,    0.0460, 5019.9504
1713414660.000,2024-04-18 04:31:00,   12.5867,    1.2058,    2.3611,    1.9470,    0.2092,    0.5115,    0.0459, 5019.8054
1713414960.000,2024-04-18 04:36:00,   12.5848,    1.2056,    2.3614,    1.9470,    0.2164,    0.5119,    0.0458, 5019.6722
1713415260.000,2024-04-18 04:41:00,   12.5818,    1.2056,    2.3613,    1.9467,    0.2164,    0.5103,    0.0454, 5019.5468
1713415560.000,2024-04-18 04:46:00,   12.5825,    1.2061,    2.3619,    1.9471,    0.2115,    0.5113,    0.0455, 5019.4253
1713415860.000,2024-04-18 04:51:00,   12.5810,    1.2061,    2.3618,    1.9471,    0.2176,    0.5107,    0.0455, 5019.3078
1713416160.000,2024-04-18 04:56:00,   12.5795,    1.2058,    2.3619,    1.9470,    0.2172,    0.5116,    0.0454, 5019.1981
1713416460.000,2024-04-18 05:01:00,   12.5783,    1.2058,    2.3622,    1.9471,    0.2179,    0.5116,    0.0454, 5019.0923
1713416760.000,2024-04-18 05:06:00,   12.5768,    1.2060,    2.3621,    1.9471,    0.2164,    0.5117,    0.0452, 5018.9904
1713417060.000,2024-04-18 05:11:00,   12.5757,    1.2060,    2.3624,    1.9471,    0.2141,    0.5115,    0.0453, 5018.8964
1713417360.000,2024-04-18 05:16:00,   12.5738,    1.2058,    2.3624,    1.9472,    0.2160,    0.5111,    0.0451, 5018.8024
1713417660.000,2024-04-18 05:21:00,   12.5734,    1.2056,    2.3625,    1.9472,    0.2118,    0.5102,    0.0449, 5018.7162
1713417960.000,2024-04-18 05:26:00,   12.5722,    1.2059,    2.3628,    1.9471,    0.2206,    0.5101,    0.0449, 5018.6300
1713418260.000,2024-04-18 05:31:00,   12.5711,    1.2057,    2.3628,    1.9472,    0.2160,    0.5100,    0.0447, 5018.5477
1713418560.000,2024-04-18 05:36:00,   12.5700,    1.2056,    2.3629,    1.9472,    0.2156,    0.5108,    0.0447, 5018.4693
1713418860.000,2024-04-18 05:41:00,   12.5692,    1.2056,    2.3630,    1.9472,    0.2115,    0.5099,    0.0448, 5018.3910
1713419160.000,2024-04-18 05:46:00,   12.5680,    1.2059,    2.3630,    1.9472,    0.2191,    0.5103,    0.0447, 5018.3165
1713419460.000,2024-04-18 05:51:00,   12.5665,    1.2058,    2.3632,    1.9472,    0.2225,    0.5103,    0.0446, 5018.2460
1713419760.000,2024-04-18 05:56:00,   12.5661,    1.2057,    2.3633,    1.9472,    0.2156,    0.5094,    0.0446, 5018.1715
1713420060.000,2024-04-18 06:01:00,   12.5650,    1.2060,    2.3631,    1.9472,    0.2099,    0.5093,    0.0444, 5018.0932
1713420360.000,2024-04-18 06:06:00,   12.5635,    1.2058,    2.3633,    1.9472,    0.2115,    0.5097,    0.0443, 5018.0305
1713420660.000,2024-04-18 06:11:00,   12.5631,    1.2060,    2.3634,    1.9472,    0.2149,    0.5095,    0.0442, 5017.9560
1713420960.000,2024-04-18 06:16:00,   12.5623,    1.2058,    2.3634,    1.9472,    0.2111,    0.5100,    0.0442, 5017.8973
1713421260.000,2024-04-18 06:21:00,   12.5608,    1.2057,    2.3637,    1.9473,    0.2236,    0.5098,    0.0442, 5017.8307
1713421560.000,2024-04-18 06:26:00,   12.5604,    1.2058,    2.3638,    1.9473,    0.2168,    0.5098,    0.0441, 5017.7758
1713421860.000,2024-04-18 06:31:00,   12.5597,    1.2058,    2.3637,    1.9473,    0.2187,    0.5088,    0.0438, 5017.7170
1713422160.000,2024-04-18 06:36:00,   12.5581,    1.2057,    2.3638,    1.9473,    0.2191,    0.5089,    0.0439, 5017.6583
1713422460.000,2024-04-18 06:41:00,   12.5578,    1.2055,    2.3640,    1.9473,    0.2187,    0.5095,    0.0437, 5017.5995
1713422760.000,2024-04-18 06:46:00,   12.5570,    1.2058,    2.3640,    1.9473,    0.2236,    0.5087,    0.0437, 5017.5485
1713423060.000,2024-04-18 06:51:00,   12.5555,    1.2058,    2.3638,    1.9473,    0.2183,    0.5095,    0.0435, 5017.4976
1713423360.000,2024-04-18 06:56:00,   12.5543,    1.2056,    2.3641,    1.9473,    0.2156,    0.5087,    0.0435, 5017.4467
1713423660.000,2024-04-18 07:01:00,   12.5543,    1.2055,    2.3640,    1.9473,    0.2229,    0.5086,    0.0435, 5017.3997
1713423960.000,2024-04-18 07:06:00,   12.5540,    1.2057,    2.3641,    1.9473,    0.2168,    0.5086,    0.0433, 5017.3487
1713424260.000,2024-04-18 07:11:00,   12.5517,    1.2058,    2.3643,    1.9474,    0.2168,    0.5085,    0.0433, 5017.3056
1713424560.000,2024-04-18 07:16:00,   12.5520,    1.2057,    2.3644,    1.9474,    0.2183,    0.5089,    0.0432, 5017.2625
1713424860.000,2024-04-18 07:21:00,   12.5501,    1.2058,    2.3643,    1.9472,    0.2179,    0.5090,    0.0428, 5017.2194
1713425160.000,2024-04-18 07:26:00,   12.5501,    1.2056,    2.3643,    1.9474,    0.2256,    0.5082,    0.0430, 5017.1842
1713425460.000,2024-04-18 07:31:00,   12.5490,    1.2058,    2.3644,    1.9474,    0.2191,    0.5092,    0.0429, 5017.1450
1713425760.000,2024-04-18 07:36:00,   12.5486,    1.2056,    2.3645,    1.9474,    0.2145,    0.5091,    0.0429, 5017.1136
1713426060.000,2024-04-18 07:41:00,   12.5479,    1.2056,    2.3647,    1.9474,    0.2229,    0.5089,    0.0428, 5017.0744
1713426360.000,2024-04-18 07:46:00,   12.5479,    1.2054,    2.3647,    1.9474,    0.2198,    0.5082,    0.0429, 5017.0431
1713426660.000,2024-04-18 07:51:00,   12.5463,    1.2055,    2.3645,    1.9474,    0.2229,    0.5090,    0.0427, 5017.0157
1713426960.000,2024-04-18 07:56:00,   12.5452,    1.2056,    2.3646,    1.9473,    0.2198,    0.5092,    0.0423, 5017.0000
1713427260.000,2024-04-18 08:01:00,   12.5448,    1.2057,    2.3647,    1.9474,    0.2183,    0.5081,    0.0424, 5017.0000
1713427560.000,2024-04-18 08:06:00,   12.5437,    1.2056,    2.3645,    1.9473,    0.2179,    0.5086,    0.0421, 5017.0000
1713427860.000,2024-04-18 08:11:00,   12.5429,    1.2055,    2.3647,    1.9474,    0.2195,    0.5079,    0.0423, 5017.0000
1713428160.000,2024-04-18 08:16:00,   12.5418,    1.2055,    2.3648,    1.9474,    0.2225,    0.5088,    0.0424, 5017.0000
1713428460.000,2024-04-18 08:21:00,   12.5421,    1.2054,    2.3649,    1.9475,    0.2172,    0.5079,    0.0424, 5017.0000
1713428760.000,2024-04-18 08:26:00,   12.5402,    1.2056,    2.3646,    1.9472,    0.2122,    0.5076,    0.0420, 5017.0000
1713429060.000,2024-04-18 08:31:00,   12.5406,    1.2054,    2.3649,    1.9475,    0.2141,    0.5077,    0.0423, 5017.0000
1713429360.000,2024-04-18 08:36:00,   12.5399,    1.2055,    2.3651,    1.9475,    0.2122,    0.5078,    0.0423, 5017.0000
1713429660.000,2024-04-18 08:41:00,   12.5391,    1.2054,    2.3649,    1.9475,    0.2187,    0.5076,    0.0422, 5017.0000
1713429960.000,2024-04-18 08:46:00,   12.5383,    1.2056,    2.3649,    1.9475,    0.2130,    0.5076,    0.0420, 5017.0000
1713430260.000,2024-04-18 08:51:00,   12.5379,    1.2056,    2.3650,    1.9476,    0.2149,    0.5077,    0.0421, 5017.0000
1713430560.000,2024-04-18 08:56:00,   12.5364,    1.2056,    2.3651,    1.9475,    0.2168,    0.5075,    0.0420, 5017.0000
1713430860.000,2024-04-18 09:01:00,   12.5357,    1.2055,    2.3651,    1.9476,    0.2084,    0.5075,    0.0420, 5017.0000
1713431160.000,2024-04-18 09:06:00,   12.5357,    1.2054,    2.3652,    1.9476,    0.2107,    0.5084,    0.0420, 5017.0000
1713431460.000,2024-04-18 09:11:00,   12.5345,    1.2059,    2.3652,    1.9476,    0.2168,    0.5084,    0.0420, 5017.0000
1713431760.000,2024-04-18 09:16:00,   12.5315,    1.2056,    2.3649,    1.9472,    0.2126,    0.5079,    0.0415, 5017.0000
1713432060.000,2024-04-18 09:21:00,   12.5326,    1.2055,    2.3654,    1.9475,    0.2118,    0.5081,    0.0418, 5017.0000
1713432360.000,2024-04-18 09:26:00,   12.5319,    1.2056,    2.3656,    1.9476,    0.2122,    0.5081,    0.0418, 5017.0000
1713432660.000,2024-04-18 09:31:00,   12.5315,    1.2055,    2.3653,    1.9475,    0.2179,    0.5071,    0.0416, 5017.0000
1713432960.000,2024-04-18 09:36:00,   12.5307,    1.2055,    2.3653,    1.9476,    0.2115,    0.5080,    0.0415, 5017.0000
1713433260.000,2024-04-18 09:41:00,   12.5296,    1.2058,    2.3654,    1.9476,    0.2141,    0.5080,    0.0416, 5017.0000
1713433560.000,2024-04-18 09:46:00,   12.5292,    1.2056,    2.3656,    1.9476,    0.2172,    0.5079,    0.0416, 5017.0000
1713433860.000,2024-04-18 09:51:00,   12.5277,    1.2059,    2.3656,    1.9476,    0.2103,    0.5080,    0.0415, 5017.0000
1713434160.000,2024-04-18 09:56:00,   12.5269,    1.2054,    2.3654,    1.9475,    0.2168,    0.5076,    0.0413, 5017.0000
1713434460.000,2024-04-18 10:01:00,   12.5265,    1.2055,    2.3656,    1.9476,    0.2115,    0.5068,    0.0415, 5017.0000
1713434760.000,2024-04-18 10:06:00,   12.5258,    1.2055,    2.3659,    1.9476,    0.2092,    0.5071,    0.0415, 5017.0000
1713435060.000,2024-04-18 10:11:00,   12.5246,    1.2055,    2.3656,    1.9476,    0.2156,    0.5068,    0.0414, 5017.0000
1713435360.000,2024-04-18 10:16:00,   12.5242,    1.2056,    2.3656,    1.9476,    0.2153,    0.5070,    0.0414, 5017.0000
1713435660.000,2024-04-18 10:21:00,   12.5235,    1.2056,    2.3659,    1.9476,    0.2130,    0.5066,    0.0413, 5017.0000
1713435960.000,2024-04-18 10:26:00,   12.5223,    1.2055,    2.3659,    1.9477,    0.2107,    0.5068,    0.0413, 5017.0000
1713436260.000,2024-04-18 10:31:00,   12.5200,    1.2053,    2.3656,    1.9474,    0.2054,    0.5062,    0.0409, 5017.0000
1713436560.000,2024-04-18 10:36:00,   12.5208,    1.2053,    2.3658,    1.9477,    0.2088,    0.5065,    0.0413, 5017.0000
1713436860.000,2024-04-18 10:41:00,   12.5193,    1.2054,    2.3660,    1.9476,    0.2107,    0.5065,    0.0413, 5017.0000
1713437160.000,2024-04-18 10:46:00,   12.5185,    1.2054,    2.3660,    1.9477,    0.2137,    0.5066,    0.0412, 5017.0000
1713437460.000,2024-04-18 10:51:00,   12.5181,    1.2056,    2.3660,    1.9476,    0.2168,    0.5064,    0.0412, 5017.0000
1713437760.000,2024-04-18 10:56:00,   12.5174,    1.2054,    2.3659,    1.9477,    0.2096,    0.5065,    0.0412, 5017.0000
1713438060.000,2024-04-18 11:01:00,   12.5166,    1.2058,    2.3660,    1.9477,    0.2107,    0.5069,    0.0412, 5017.0000
1713438360.000,2024-04-18 11:06:00,   12.5162,    1.2057,    2.3660,    1.9477,    0.2115,    0.5063,    0.0411, 5017.0000
1713438660.000,2024-04-18 11:11:00,   12.5139,    1.2056,    2.3659,    1.9477,    0.2126,    0.5070,    0.0412, 5017.0000
1713438960.000,2024-04-18 11:16:00,   12.5132,    1.2055,    2.3661,    1.9476,    0.2046,    0.5068,    0.0411, 5017.0000
1713439260.000,2024-04-18 11:21:00,   12.5120,    1.2056,    2.3661,    1.9477,    0.2080,    0.5062,    0.0410, 5017.0000
1713439560.000,2024-04-18 11:26:00,   12.5113,    1.2056,    2.3662,    1.9478,    0.2122,    0.5063,    0.0411, 5017.0000
1713439860.000,2024-04-18 11:31:00,   12.5105,    1.2056,    2.3663,    1.9477,    0.2076,    0.5061,    0.0410, 5017.0000
1713440160.000,2024-04-18 11:36:00,   12.5094,    1.2056,    2.3660,    1.9477,    0.2103,    0.5062,    0.0407, 5017.0000
1713440460.000,2024-04-18 11:41:00,   12.5090,    1.2059,    2.3661,    1.9477,    0.1996,    0.5061,    0.0407, 5017.0000
1713440760.000,2024-04-18 11:46:00,   12.5075,    1.2057,    2.3663,    1.9477,    0.2080,    0.5059,    0.0405, 5017.0000
1713441060.000,2024-04-18 11:51:00,   12.5063,    1.2056,    2.3662,    1.9478,    0.2069,    0.5059,    0.0403, 5017.0000
1713441360.000,2024-04-18 11:56:00,   12.5052,    1.2054,    2.3663,    1.9477,    0.2046,    0.5059,    0.0403, 5017.0000
1713441660.000,2024-04-18 12:01:00,   12.5052,    1.2059,    2.3665,    1.9477,    0.2065,    0.5059,    0.0403, 5017.0000
1713441960.000,2024-04-18 12:06:00,   12.5033,    1.2056,    2.3664,    1.9478,    0.2099,    0.5059,    0.0402, 5017.0000
1713442260.000,2024-04-18 12:11:00,   12.5025,    1.2057,    2.3664,    1.9477,    0.2069,    0.5060,    0.0403, 5017.0000
1713442560.000,2024-04-18 12:16:00,   12.5014,    1.2054,    2.3665,    1.9478,    0.2096,    0.5061,    0.0402, 5017.0000
1713442860.000,2024-04-18 12:21:00,   12.5002,    1.2057,    2.3666,    1.9477,    0.2092,    0.5059,    0.0402, 5017.0000
1713443160.000,2024-04-18 12:26:00,   12.4991,    1.2059,    2.3665,    1.9478,    0.2088,    0.5058,    0.0400, 5017.0000
1713443460.000,2024-04-18 12:31:00,   12.4983,    1.2056,    2.3666,    1.9478,    0.2084,    0.5057,    0.0402, 5017.0000
1713443760.000,2024-04-18 12:36:00,   12.4972,    1.2054,    2.3667,    1.9478,    0.2080,    0.5059,    0.0399, 5017.0000
1713444060.000,2024-04-18 12:41:00,   12.4960,    1.2058,    2.3665,    1.9478,    0.2057,    0.5066,    0.0399, 5017.0000
1713444360.000,2024-04-18 12:46:00,   12.4953,    1.2048,    2.3668,    1.9478,    0.2057,    0.5056,    0.0399, 5017.0000
1713444660.000,2024-04-18 12:51:00,   12.4953,    1.2053,    2.3668,    1.9478,    0.2092,    0.5056,    0.0399, 5017.0000
1713444960.000,2024-04-18 12:56:00,   12.4934,    1.2052,    2.3667,    1.9479,    0.2050,    0.5056,    0.0399, 5017.0000
1713445260.000,2024-04-18 13:01:00,   12.4926,    1.2058,    2.3669,    1.9479,    0.2000,    0.5056,    0.0397, 5017.0000
1713445560.000,2024-04-18 13:06:00,   12.4907,    1.2056,    2.3668,    1.9479,    0.2012,    0.5055,    0.0397, 5017.0000
1713445860.000,2024-04-18 13:11:00,   12.4896,    1.2057,    2.3668,    1.9478,    0.2035,    0.5054,    0.0396, 5017.0000
1713446160.000,2024-04-18 13:16:00,   12.4880,    1.2057,    2.3670,    1.9478,    0.2103,    0.5055,    0.0395, 5017.0000
1713446460.000,2024-04-18 13:21:00,   12.4865,    1.2056,    2.3670,    1.9478,    0.2015,    0.5055,    0.0396, 5017.0000
1713446760.000,2024-04-18 13:26:00,   12.4858,    1.2059,    2.3668,    1.9478,    0.2096,    0.5054,    0.0394, 5017.0000
1713447060.000,2024-04-18 13:31:00,   12.4850,    1.2055,    2.3667,    1.9479,    0.2099,    0.5057,    0.0393, 5017.0000
1713447360.000,2024-04-18 13:36:00,   12.4823,    1.2057,    2.3668,    1.9479,    0.2046,    0.5060,    0.0392, 5017.0000
1713447660.000,2024-04-18 13:41:00,   12.4804,    1.2054,    2.3671,    1.9478,    0.2076,    0.5053,    0.0391, 5017.0000
1713447960.000,2024-04-18 13:46:00,   12.4793,    1.2058,    2.3671,    1.9478,    0.2080,    0.5064,    0.0391, 5017.0000
1713448260.000,2024-04-18 13:51:00,   12.4778,    1.2056,    2.3668,    1.9479,    0.2038,    0.5065,    0.0391, 5017.0000
1713448560.000,2024-04-18 13:56:00,   12.4770,    1.2056,    2.3668,    1.9479,    0.1989,    0.5054,    0.0391, 5017.0000
1713448860.000,2024-04-18 14:01:00,   12.4758,    1.2056,    2.3668,    1.9479,    0.2061,    0.5056,    0.0391, 5017.0000
1713449160.000,2024-04-18 14:06:00,   12.4743,    1.2056,    2.3668,    1.9478,    0.2080,    0.5056,    0.0389, 5017.0000
1713449460.000,2024-04-18 14:11:00,   12.4728,    1.2050,    2.3669,    1.9479,    0.2046,    0.5063,    0.0389, 5017.0000
1713449760.000,2024-04-18 14:16:00,   12.4720,    1.2058,    2.3668,    1.9479,    0.2054,    0.5054,    0.0388, 5017.0000
1713450060.000,2024-04-18 14:21:00,   12.4705,    1.2056,    2.3670,    1.9478,    0.2023,    0.5054,    0.0387, 5017.0000
1713450360.000,2024-04-18 14:26:00,   12.4697,    1.2056,    2.3668,    1.9479,    0.1985,    0.5054,    0.0387, 5017.0000
1713450660.000,2024-04-18 14:31:00,   12.4678,    1.2063,    2.3669,    1.9479,    0.2038,    0.5068,    0.0386, 5017.0000
1713450960.000,2024-04-18 14:36:00,   12.4675,    1.2061,    2.3668,    1.9478,    0.2031,    0.5055,    0.0384, 5017.0000
1713451260.000,2024-04-18 14:41:00,   12.4656,    1.2057,    2.3666,    1.9478,    0.2076,    0.5057,    0.0384, 5017.0000
1713451560.000,2024-04-18 14:46:00,   12.4644,    1.2054,    2.3663,    1.9477,    0.2023,    0.5054,    0.0383, 5017.0000
1713451860.000,2024-04-18 14:51:00,   12.4629,    1.2056,    2.3659,    1.9477,    0.2019,    0.5055,    0.0382, 5017.0000
1713452160.000,2024-04-18 14:56:00,   12.4621,    1.2056,    2.3651,    1.9476,    0.2031,    0.5055,    0.0382, 5017.0000
1713452460.000,2024-04-18 15:01:00,   12.4602,    1.2059,    2.3641,    1.9477,    0.2103,    0.5064,    0.0381, 5017.0000
1713452760.000,2024-04-18 15:06:00,   12.4595,    1.2059,    2.3635,    1.9476,    0.2019,    0.5057,    0.0379, 5017.0000
1713453060.000,2024-04-18 15:11:00,   12.4576,    1.2058,    2.3625,    1.9476,    0.2023,    0.5068,    0.0378, 5017.0000
1713453360.000,2024-04-18 15:16:00,   12.4568,    1.2059,    2.3615,    1.9475,    0.2008,    0.5060,    0.0377, 5017.0000
1713453660.000,2024-04-18 15:21:00,   12.4557,    1.2054,    2.3605,    1.9474,    0.2069,    0.5060,    0.0377, 5017.0000
1713453960.000,2024-04-18 15:26:00,   12.4541,    1.2061,    2.3597,    1.9474,    0.2004,    0.5062,    0.0376, 5017.0000
1713454260.000,2024-04-18 15:31:00,   12.4534,    1.2056,    2.3588,    1.9473,    0.2061,    0.5063,    0.0376, 5017.0039